User: anonymous   Login
Location: Caltech
(34.1382°N, 118.1253°W)
Time: 15:27:08
(UTC-08:00)
Language:

Cosmos 1937 Rocket - Orbit

View from above orbital plane
View from above orbital plane
View from above satellite
View from above satellite

Ground track
Ground track

The orbit data is extracted from the following two-line orbital elements,

1 19039U 88029B   17017.04094096 -.00000042  00000-0 -50519-5 0  9990
2 19039  74.0451 217.7554 0022759  67.5666  46.3407 14.38346121509121
Epoch (UTC): 17 January 2017 00:58:57
Eccentricity: 0.0022759
inclination: 74.0451°
perigee height: 748 km
apogee height: 780 km
right ascension of ascending node: 217.7554°
argument of perigee: 67.5666°
revolutions per day: 14.38346121
mean anomaly at epoch: 46.3407°
orbit number at epoch: 50912

The dashed part of the orbit path shows where the satellite is in the earth's shadow,  

DLR